RYR740D EGHH-LEAL

Flight info

Callsign RYR740D
Flight time 2h 4m
Altitude 31000
Route THRED Z171 LELNA DCT DOMOK UT260 UPALO/N0451F390 UP87 TERPO UM616 TUPAR DCT CNA DCT SECHE DCT AGN DCT ANETO DCT POSSY DCT XIMPE DCT RIMES N860 VLC
Aircraft B38M/M-SDE1FGHILORVWXY/HB1

Departure

Time 2026-05-01 08:44
Airport Bournemouth Airport (EGHH)

Arrival

Time 2026-05-01 10:49
Airport Alicante-Elche Miguel Hernández Airport (LEAL)
Time Latitude Longitude Altitude Speed Heading
2026-05-01 08:17 50.77767 -1.83378 43 ft 0 kts 86°
2026-05-01 08:31 50.77766 -1.83405 44 ft 3 kts 86°
2026-05-01 08:31 50.77765 -1.83435 29 ft 3 kts 118°
2026-05-01 08:32 50.77778 -1.83452 44 ft 1 kts 173°
2026-05-01 08:32 50.77779 -1.83453 44 ft 0 kts 173°
2026-05-01 08:34 50.77777 -1.83452 44 ft 1 kts 173°
2026-05-01 08:35 50.77768 -1.83454 56 ft 2 kts 186°
2026-05-01 08:35 50.77740 -1.83460 44 ft 6 kts 187°
2026-05-01 08:35 50.77693 -1.83475 44 ft 8 kts 192°
2026-05-01 08:35 50.77626 -1.83496 43 ft 11 kts 193°
2026-05-01 08:36 50.77583 -1.83549 43 ft 6 kts 247°
2026-05-01 08:36 50.77573 -1.83596 44 ft 3 kts 265°
2026-05-01 08:36 50.77571 -1.83633 44 ft 4 kts 265°
2026-05-01 08:36 50.77572 -1.83666 44 ft 3 kts 276°
2026-05-01 08:37 50.77575 -1.83704 44 ft 4 kts 276°
2026-05-01 08:37 50.77578 -1.83767 44 ft 8 kts 275°
2026-05-01 08:37 50.77579 -1.83791 45 ft 1 kts 275°
2026-05-01 08:37 50.77583 -1.83837 42 ft 6 kts 281°
2026-05-01 08:38 50.77594 -1.83931 45 ft 11 kts 281°
2026-05-01 08:38 50.77617 -1.84072 43 ft 15 kts 284°
2026-05-01 08:38 50.77647 -1.84243 45 ft 17 kts 289°
2026-05-01 08:38 50.77684 -1.84415 44 ft 15 kts 285°
2026-05-01 08:39 50.77708 -1.84577 45 ft 15 kts 281°
2026-05-01 08:39 50.77724 -1.84717 45 ft 11 kts 283°
2026-05-01 08:39 50.77734 -1.84770 45 ft 0 kts 289°
2026-05-01 08:40 50.77735 -1.84771 45 ft 0 kts 289°
2026-05-01 08:40 50.77735 -1.84775 45 ft 1 kts 289°
2026-05-01 08:41 50.77739 -1.84788 45 ft 2 kts 290°
2026-05-01 08:41 50.77747 -1.84818 44 ft 4 kts 294°
2026-05-01 08:41 50.77761 -1.84861 44 ft 6 kts 299°
2026-05-01 08:41 50.77786 -1.84933 47 ft 9 kts 297°
2026-05-01 08:42 50.77823 -1.85036 47 ft 13 kts 300°
2026-05-01 08:42 50.77849 -1.85164 49 ft 12 kts 266°
2026-05-01 08:42 50.77850 -1.85274 49 ft 4 kts 250°
2026-05-01 08:42 50.77843 -1.85278 49 ft 1 kts 186°
2026-05-01 08:43 50.77840 -1.85271 44 ft 1 kts 133°
2026-05-01 08:43 50.77841 -1.85261 49 ft 2 kts 83°
2026-05-01 08:43 50.77851 -1.85185 49 ft 12 kts 76°
2026-05-01 08:43 50.77909 -1.84833 49 ft 68 kts 76°
2026-05-01 08:44 50.78094 -1.83732 46 ft 137 kts 75°
2026-05-01 08:44 50.78372 -1.82122 425 ft 162 kts 77°
2026-05-01 08:44 50.78515 -1.80308 847 ft 170 kts 93°
2026-05-01 08:44 50.78443 -1.78392 1102 ft 184 kts 85°
2026-05-01 08:45 50.78717 -1.76330 1292 ft 198 kts 74°
2026-05-01 08:45 50.79170 -1.74274 1737 ft 195 kts 73°
2026-05-01 08:45 50.79504 -1.72247 2132 ft 186 kts 66°
2026-05-01 08:45 50.80144 -1.70577 2716 ft 169 kts 56°
2026-05-01 08:46 50.81211 -1.69652 2660 ft 197 kts 359°
2026-05-01 08:46 50.82556 -1.70401 2650 ft 207 kts 325°
2026-05-01 08:46 50.83537 -1.71673 3550 ft 168 kts 301°
2026-05-01 08:46 50.83762 -1.73485 3531 ft 180 kts 244°
2026-05-01 08:47 50.82989 -1.75117 3599 ft 198 kts 209°
2026-05-01 08:47 50.81636 -1.75881 3724 ft 220 kts 191°
2026-05-01 08:47 50.80054 -1.76370 3887 ft 241 kts 189°
2026-05-01 08:47 50.78377 -1.76947 4319 ft 251 kts 193°
2026-05-01 08:48 50.76693 -1.77677 4869 ft 256 kts 194°
2026-05-01 08:48 50.74972 -1.78449 5450 ft 258 kts 193°
2026-05-01 08:48 50.73227 -1.79197 6086 ft 260 kts 192°
2026-05-01 08:48 50.71470 -1.79937 6722 ft 262 kts 192°
2026-05-01 08:49 50.69700 -1.80689 7323 ft 264 kts 193°
2026-05-01 08:49 50.67922 -1.81448 7935 ft 266 kts 193°
2026-05-01 08:49 50.66127 -1.82212 8562 ft 268 kts 193°
2026-05-01 08:49 50.64322 -1.82979 9196 ft 269 kts 193°
2026-05-01 08:50 50.62509 -1.83748 9833 ft 271 kts 193°
2026-05-01 08:50 50.60691 -1.84520 10375 ft 276 kts 193°
2026-05-01 08:50 50.58804 -1.85318 10728 ft 287 kts 193°
2026-05-01 08:50 50.56820 -1.86158 11003 ft 302 kts 193°
2026-05-01 08:51 50.54752 -1.87034 11349 ft 312 kts 193°
2026-05-01 08:51 50.52632 -1.87932 11826 ft 319 kts 193°
2026-05-01 08:51 50.50474 -1.88844 12365 ft 323 kts 193°
2026-05-01 08:51 50.48285 -1.89768 12968 ft 327 kts 193°
2026-05-01 08:52 50.46074 -1.90700 13599 ft 330 kts 194°
2026-05-01 08:52 50.43840 -1.91641 14205 ft 334 kts 194°
2026-05-01 08:52 50.41586 -1.92590 14755 ft 337 kts 194°
2026-05-01 08:52 50.39311 -1.93547 15329 ft 340 kts 194°
2026-05-01 08:53 50.37048 -1.94497 15883 ft 343 kts 194°
2026-05-01 08:53 50.34729 -1.95470 16433 ft 346 kts 194°
2026-05-01 08:53 50.32396 -1.96447 16974 ft 349 kts 194°
2026-05-01 08:53 50.30040 -1.97434 17514 ft 352 kts 194°
2026-05-01 08:54 50.27662 -1.98429 18045 ft 355 kts 194°
2026-05-01 08:54 50.25261 -1.99432 18548 ft 359 kts 194°
2026-05-01 08:54 50.22838 -2.00443 18996 ft 362 kts 194°
2026-05-01 08:54 50.20386 -2.01466 19451 ft 365 kts 194°
2026-05-01 08:55 50.17926 -2.02490 19912 ft 368 kts 194°
2026-05-01 08:55 50.15470 -2.03512 20398 ft 370 kts 194°
2026-05-01 08:55 50.12962 -2.04554 20917 ft 374 kts 194°
2026-05-01 08:55 50.10438 -2.05602 21367 ft 376 kts 194°
2026-05-01 08:56 50.07898 -2.06657 21803 ft 379 kts 194°
2026-05-01 08:56 50.06202 -2.07359 22092 ft 381 kts 194°
2026-05-01 08:56 50.03632 -2.08423 22533 ft 383 kts 194°
2026-05-01 08:56 50.01047 -2.09491 22961 ft 385 kts 194°
2026-05-01 08:57 49.98438 -2.10487 23373 ft 387 kts 187°
2026-05-01 08:57 49.95743 -2.10667 23799 ft 388 kts 179°
2026-05-01 08:57 49.93033 -2.10628 24149 ft 391 kts 179°
2026-05-01 08:57 49.90300 -2.10590 24496 ft 393 kts 179°
2026-05-01 08:58 49.87555 -2.10581 24840 ft 395 kts 179°
2026-05-01 08:58 49.84797 -2.10577 25181 ft 397 kts 179°
2026-05-01 08:58 49.82020 -2.10560 25521 ft 399 kts 179°
2026-05-01 08:58 49.79271 -2.10537 25849 ft 401 kts 179°
2026-05-01 08:59 49.76473 -2.10521 26180 ft 403 kts 179°
2026-05-01 08:59 49.73657 -2.10501 26509 ft 405 kts 178°
2026-05-01 08:59 49.70883 -2.09844 26832 ft 406 kts 165°
2026-05-01 08:59 49.68160 -2.08640 27143 ft 408 kts 164°
2026-05-01 09:00 49.65419 -2.07393 27462 ft 409 kts 164°
2026-05-01 09:00 49.62663 -2.06178 27765 ft 411 kts 165°
2026-05-01 09:00 49.59936 -2.05000 28067 ft 413 kts 165°
2026-05-01 09:00 49.57163 -2.03790 28366 ft 415 kts 164°
2026-05-01 09:01 49.54378 -2.02561 28663 ft 417 kts 164°
2026-05-01 09:01 49.51582 -2.01333 28953 ft 419 kts 164°
2026-05-01 09:01 49.48774 -2.00110 29244 ft 420 kts 164°
2026-05-01 09:01 49.45950 -1.98880 29531 ft 422 kts 164°
2026-05-01 09:02 49.43142 -1.97654 29809 ft 424 kts 164°
2026-05-01 09:02 49.40298 -1.96414 30085 ft 426 kts 164°
2026-05-01 09:02 49.37438 -1.95171 30351 ft 428 kts 164°
2026-05-01 09:02 49.34573 -1.93927 30559 ft 429 kts 164°
2026-05-01 09:03 49.31691 -1.92677 30787 ft 431 kts 164°
2026-05-01 09:03 49.28801 -1.91424 30996 ft 433 kts 164°
2026-05-01 09:03 49.25888 -1.90163 31203 ft 435 kts 164°
2026-05-01 09:03 49.22964 -1.88900 31412 ft 437 kts 164°
2026-05-01 09:04 49.20021 -1.87629 31609 ft 439 kts 164°
2026-05-01 09:04 49.17070 -1.86357 31819 ft 441 kts 164°
2026-05-01 09:04 49.14103 -1.85079 32020 ft 444 kts 164°
2026-05-01 09:04 49.11124 -1.83797 32216 ft 446 kts 164°
2026-05-01 09:05 49.08135 -1.82513 32411 ft 448 kts 164°
2026-05-01 09:05 49.05123 -1.81221 32603 ft 450 kts 164°
2026-05-01 09:05 49.02144 -1.79944 32836 ft 451 kts 164°
2026-05-01 09:05 48.99125 -1.78652 33094 ft 451 kts 164°
2026-05-01 09:06 48.96096 -1.77357 33359 ft 452 kts 165°
2026-05-01 09:06 48.93068 -1.76065 33621 ft 452 kts 165°
2026-05-01 09:06 48.89984 -1.75184 33895 ft 451 kts 177°
2026-05-01 09:06 48.86841 -1.75076 34161 ft 452 kts 180°
2026-05-01 09:07 48.83692 -1.75093 34389 ft 452 kts 180°
2026-05-01 09:07 48.80542 -1.75100 34609 ft 453 kts 180°
2026-05-01 09:07 48.77391 -1.75039 34837 ft 453 kts 179°
2026-05-01 09:07 48.74237 -1.74970 35071 ft 453 kts 179°
2026-05-01 09:08 48.71075 -1.74938 35306 ft 454 kts 180°
2026-05-01 09:08 48.67954 -1.74917 35543 ft 454 kts 180°
2026-05-01 09:08 48.64797 -1.74879 35779 ft 454 kts 180°
2026-05-01 09:08 48.61630 -1.74829 36023 ft 454 kts 180°
2026-05-01 09:09 48.58468 -1.74789 36236 ft 454 kts 180°
2026-05-01 09:09 48.55301 -1.74756 36472 ft 454 kts 180°
2026-05-01 09:09 48.52144 -1.74719 36685 ft 455 kts 180°
2026-05-01 09:09 48.48978 -1.74678 36890 ft 455 kts 180°
2026-05-01 09:10 48.45840 -1.74638 37095 ft 455 kts 180°
2026-05-01 09:10 48.42674 -1.74601 37305 ft 455 kts 180°
2026-05-01 09:10 48.39499 -1.74563 37503 ft 456 kts 180°
2026-05-01 09:10 48.36312 -1.74524 37693 ft 456 kts 180°
2026-05-01 09:11 48.33140 -1.74485 37898 ft 456 kts 180°
2026-05-01 09:11 48.29962 -1.74447 38093 ft 457 kts 180°
2026-05-01 09:11 48.26779 -1.74409 38276 ft 457 kts 180°
2026-05-01 09:11 48.23601 -1.74370 38462 ft 457 kts 180°
2026-05-01 09:12 48.20416 -1.74332 38649 ft 457 kts 180°
2026-05-01 09:12 48.17238 -1.74293 38828 ft 457 kts 180°
2026-05-01 09:12 48.14057 -1.74255 38975 ft 457 kts 180°
2026-05-01 09:12 48.10870 -1.74217 39114 ft 457 kts 180°
2026-05-01 09:13 48.04639 -1.75236 39229 ft 448 kts 199°
2026-05-01 09:13 47.98848 -1.78367 39210 ft 442 kts 200°
2026-05-01 09:14 47.93025 -1.81290 39209 ft 441 kts 199°
2026-05-01 09:14 47.87219 -1.84286 39214 ft 441 kts 200°
2026-05-01 09:15 47.81402 -1.87252 39212 ft 441 kts 199°
2026-05-01 09:15 47.75588 -1.90212 39208 ft 441 kts 200°
2026-05-01 09:16 47.69776 -1.93171 39210 ft 441 kts 200°
2026-05-01 09:17 47.60872 -1.95840 39220 ft 444 kts 177°
2026-05-01 09:17 47.51640 -1.94588 39226 ft 443 kts 178°
2026-05-01 09:18 47.42414 -1.93678 39224 ft 444 kts 176°
2026-05-01 09:19 47.33375 -1.91311 39264 ft 448 kts 147°
2026-05-01 09:19 47.31017 -1.88286 39264 ft 451 kts 131°
2026-05-01 09:20 47.27348 -1.80791 39219 ft 452 kts 125°
2026-05-01 09:21 47.19273 -1.66799 39222 ft 450 kts 133°
2026-05-01 09:21 47.12739 -1.56872 39219 ft 451 kts 140°
2026-05-01 09:22 47.03378 -1.44583 39225 ft 452 kts 139°
2026-05-01 09:23 46.96344 -1.35390 39237 ft 451 kts 139°
2026-05-01 09:24 46.89348 -1.26244 39231 ft 451 kts 139°
2026-05-01 09:25 46.79943 -1.14006 39234 ft 454 kts 139°
2026-05-01 09:26 46.72867 -1.04839 39234 ft 453 kts 139°
2026-05-01 09:26 46.65780 -0.95689 39227 ft 453 kts 139°
2026-05-01 09:27 46.58719 -0.86607 39223 ft 453 kts 139°
2026-05-01 09:28 46.53999 -0.80525 39217 ft 453 kts 139°
2026-05-01 09:28 46.49270 -0.74430 39216 ft 454 kts 139°
2026-05-01 09:29 46.41949 -0.65755 39286 ft 451 kts 158°
2026-05-01 09:30 46.32984 -0.61783 39230 ft 451 kts 165°
2026-05-01 09:30 46.24022 -0.57497 39229 ft 452 kts 164°
2026-05-01 09:31 46.18011 -0.54840 39228 ft 451 kts 163°
2026-05-01 09:32 46.09077 -0.50705 39221 ft 450 kts 164°
2026-05-01 09:32 46.00101 -0.46612 39226 ft 451 kts 164°
2026-05-01 09:33 45.94126 -0.43900 39219 ft 450 kts 164°
2026-05-01 09:34 45.85167 -0.39832 39218 ft 450 kts 164°
2026-05-01 09:34 45.76216 -0.35786 39217 ft 449 kts 164°
2026-05-01 09:35 45.67318 -0.31777 39231 ft 448 kts 164°
2026-05-01 09:36 45.61609 -0.28162 39245 ft 450 kts 155°
2026-05-01 09:36 45.55983 -0.24252 39242 ft 449 kts 156°
2026-05-01 09:37 45.50336 -0.20368 39240 ft 449 kts 156°
2026-05-01 09:37 45.41946 -0.14590 39237 ft 448 kts 156°
2026-05-01 09:38 45.33509 -0.08801 39229 ft 448 kts 156°
2026-05-01 09:39 45.25081 -0.03040 39227 ft 448 kts 156°
2026-05-01 09:39 45.19455 0.00795 39226 ft 449 kts 156°
2026-05-01 09:40 45.11047 0.06512 39218 ft 446 kts 156°
2026-05-01 09:41 45.05446 0.10309 39214 ft 446 kts 156°
2026-05-01 09:41 44.97056 0.15983 39226 ft 445 kts 156°
2026-05-01 09:42 44.92410 0.19116 39227 ft 445 kts 156°
2026-05-01 09:43 44.81211 0.26646 39238 ft 445 kts 156°
2026-05-01 09:43 44.75613 0.30398 39240 ft 446 kts 156°
2026-05-01 09:44 44.67208 0.36016 39243 ft 445 kts 156°
2026-05-01 09:45 44.61642 0.39727 39233 ft 446 kts 156°
2026-05-01 09:45 44.53237 0.45314 39233 ft 445 kts 156°
2026-05-01 09:46 44.47631 0.49032 39224 ft 446 kts 156°
2026-05-01 09:46 44.42018 0.52743 39227 ft 445 kts 156°
2026-05-01 09:47 44.36437 0.56389 39209 ft 444 kts 156°
2026-05-01 09:47 44.30839 0.60052 39210 ft 444 kts 156°
2026-05-01 09:48 44.25231 0.63709 39204 ft 444 kts 157°
2026-05-01 09:48 44.19631 0.67355 39211 ft 444 kts 156°
2026-05-01 09:49 44.14074 0.70964 39215 ft 444 kts 156°
2026-05-01 09:49 44.08468 0.74598 39213 ft 444 kts 156°
2026-05-01 09:50 44.02857 0.78228 39209 ft 445 kts 157°
2026-05-01 09:50 43.97243 0.81851 39207 ft 443 kts 156°
2026-05-01 09:51 43.91676 0.85438 39204 ft 443 kts 156°
2026-05-01 09:51 43.88811 0.86887 39235 ft 436 kts 174°
2026-05-01 09:51 43.85792 0.86954 39239 ft 436 kts 188°
2026-05-01 09:52 43.79873 0.85083 39210 ft 436 kts 196°
2026-05-01 09:52 43.73963 0.83187 39217 ft 436 kts 189°
2026-05-01 09:53 43.67961 0.81789 39207 ft 437 kts 192°
2026-05-01 09:53 43.62051 0.80093 39207 ft 437 kts 191°
2026-05-01 09:54 43.56058 0.78569 39213 ft 438 kts 191°
2026-05-01 09:54 43.50074 0.76946 39212 ft 439 kts 191°
2026-05-01 09:55 43.44072 0.75375 39203 ft 440 kts 191°
2026-05-01 09:55 43.38061 0.73780 39204 ft 438 kts 191°
2026-05-01 09:56 43.32091 0.72209 39202 ft 438 kts 191°
2026-05-01 09:56 43.26103 0.70633 39205 ft 438 kts 191°
2026-05-01 09:57 43.20100 0.69057 39200 ft 439 kts 192°
2026-05-01 09:57 43.14095 0.67483 39201 ft 439 kts 192°
2026-05-01 09:58 43.08090 0.65913 39205 ft 439 kts 192°
2026-05-01 09:58 43.02084 0.64346 39214 ft 440 kts 192°
2026-05-01 09:59 42.96073 0.62780 39207 ft 438 kts 192°
2026-05-01 09:59 42.90076 0.61221 39209 ft 438 kts 192°
2026-05-01 10:00 42.84115 0.59674 39219 ft 438 kts 192°
2026-05-01 10:00 42.78146 0.58130 39220 ft 438 kts 192°
2026-05-01 10:01 42.72123 0.56573 39228 ft 439 kts 192°
2026-05-01 10:01 42.66356 0.54010 39235 ft 438 kts 206°
2026-05-01 10:02 42.60884 0.50421 39243 ft 437 kts 206°
2026-05-01 10:02 42.55363 0.46926 39250 ft 437 kts 206°
2026-05-01 10:03 42.49904 0.43425 39246 ft 436 kts 206°
2026-05-01 10:03 42.44390 0.39915 39251 ft 437 kts 206°
2026-05-01 10:04 42.38873 0.36405 39247 ft 438 kts 206°
2026-05-01 10:04 42.33399 0.32929 39245 ft 438 kts 206°
2026-05-01 10:05 42.27882 0.29435 39240 ft 438 kts 206°
2026-05-01 10:05 42.22374 0.25950 39241 ft 438 kts 206°
2026-05-01 10:06 42.16847 0.22463 39226 ft 438 kts 206°
2026-05-01 10:06 42.11331 0.18987 39224 ft 438 kts 206°
2026-05-01 10:07 42.05740 0.15732 39252 ft 438 kts 192°
2026-05-01 10:07 41.99666 0.14729 39232 ft 440 kts 187°
2026-05-01 10:08 41.90554 0.13359 39233 ft 440 kts 188°
2026-05-01 10:09 41.84457 0.12472 39227 ft 441 kts 187°
2026-05-01 10:09 41.78362 0.11551 39230 ft 440 kts 188°
2026-05-01 10:10 41.72267 0.10646 39231 ft 440 kts 188°
2026-05-01 10:10 41.63176 0.09291 39229 ft 440 kts 188°
2026-05-01 10:11 41.57085 0.08390 39226 ft 440 kts 188°
2026-05-01 10:11 41.50990 0.07486 39220 ft 440 kts 188°
2026-05-01 10:12 41.45928 0.06738 39221 ft 440 kts 188°
2026-05-01 10:13 41.35806 0.05245 39219 ft 440 kts 188°
2026-05-01 10:13 41.29718 0.04349 39208 ft 440 kts 188°
2026-05-01 10:14 41.20583 0.03008 39206 ft 440 kts 188°
2026-05-01 10:14 41.14501 0.02117 39203 ft 440 kts 188°
2026-05-01 10:15 41.08402 0.01225 39201 ft 440 kts 187°
2026-05-01 10:15 41.02323 0.00339 39201 ft 440 kts 187°
2026-05-01 10:16 40.96221 -0.00550 39204 ft 441 kts 188°
2026-05-01 10:17 40.87067 -0.01879 39201 ft 441 kts 187°
2026-05-01 10:17 40.77938 -0.03202 39202 ft 441 kts 188°
2026-05-01 10:18 40.68767 -0.04527 39209 ft 441 kts 187°
2026-05-01 10:19 40.62665 -0.05406 39212 ft 441 kts 187°
2026-05-01 10:19 40.56595 -0.06289 39207 ft 441 kts 189°
2026-05-01 10:20 40.47753 -0.09598 39210 ft 440 kts 198°
2026-05-01 10:20 40.41897 -0.11899 39204 ft 439 kts 198°
2026-05-01 10:21 40.33113 -0.15378 39200 ft 439 kts 198°
2026-05-01 10:22 40.24335 -0.18835 39183 ft 440 kts 198°
2026-05-01 10:23 40.15537 -0.22291 39192 ft 442 kts 198°
2026-05-01 10:23 40.06687 -0.25760 39226 ft 442 kts 198°
2026-05-01 10:24 39.94918 -0.30357 39114 ft 439 kts 198°
2026-05-01 10:25 39.89058 -0.32639 38011 ft 438 kts 198°
2026-05-01 10:25 39.83232 -0.34905 36913 ft 435 kts 198°
2026-05-01 10:26 39.80337 -0.36029 36340 ft 433 kts 198°
2026-05-01 10:26 39.77456 -0.37147 35775 ft 432 kts 198°
2026-05-01 10:26 39.71862 -0.39314 34641 ft 404 kts 198°
2026-05-01 10:27 39.66470 -0.41403 33463 ft 410 kts 198°
2026-05-01 10:27 39.60946 -0.43535 32260 ft 416 kts 197°
2026-05-01 10:28 39.58167 -0.44607 31631 ft 416 kts 197°
2026-05-01 10:28 39.52641 -0.46737 30404 ft 413 kts 197°
2026-05-01 10:28 39.49882 -0.47769 29758 ft 411 kts 193°
2026-05-01 10:29 39.44267 -0.47339 28477 ft 409 kts 169°
2026-05-01 10:29 39.41503 -0.46522 27949 ft 406 kts 169°
2026-05-01 10:30 39.36007 -0.45126 26870 ft 399 kts 172°
2026-05-01 10:30 39.30591 -0.43785 25822 ft 393 kts 170°
2026-05-01 10:31 39.26144 -0.42645 24965 ft 390 kts 171°
2026-05-01 10:31 39.20845 -0.41332 23940 ft 386 kts 171°
2026-05-01 10:32 39.15602 -0.40010 22866 ft 381 kts 171°
2026-05-01 10:32 39.13006 -0.39362 22381 ft 378 kts 171°
2026-05-01 10:32 39.07880 -0.38082 21385 ft 373 kts 171°
2026-05-01 10:33 39.02809 -0.36816 20405 ft 368 kts 170°
2026-05-01 10:33 38.97838 -0.35577 19444 ft 364 kts 170°
2026-05-01 10:34 38.95355 -0.34958 18971 ft 363 kts 170°
2026-05-01 10:34 38.92881 -0.34343 18483 ft 361 kts 170°
2026-05-01 10:34 38.90420 -0.33731 17968 ft 358 kts 170°
2026-05-01 10:35 38.85564 -0.32524 17034 ft 352 kts 171°
2026-05-01 10:35 38.83164 -0.31928 16567 ft 350 kts 170°
2026-05-01 10:35 38.80784 -0.31337 16104 ft 348 kts 171°
2026-05-01 10:35 38.78415 -0.30749 15649 ft 345 kts 171°
2026-05-01 10:36 38.73726 -0.29587 14735 ft 341 kts 171°
2026-05-01 10:36 38.71396 -0.29010 14290 ft 340 kts 171°
2026-05-01 10:36 38.69073 -0.28435 13814 ft 339 kts 171°
2026-05-01 10:37 38.66771 -0.27866 13363 ft 337 kts 171°
2026-05-01 10:37 38.62231 -0.26744 12483 ft 331 kts 170°
2026-05-01 10:37 38.59972 -0.26187 12042 ft 329 kts 170°
2026-05-01 10:38 38.57730 -0.25634 11604 ft 327 kts 170°
2026-05-01 10:38 38.55510 -0.25087 11152 ft 317 kts 170°
2026-05-01 10:38 38.53443 -0.24576 10745 ft 289 kts 170°
2026-05-01 10:38 38.51503 -0.24100 10395 ft 284 kts 171°
2026-05-01 10:39 38.49558 -0.23622 10026 ft 286 kts 170°
2026-05-01 10:39 38.47605 -0.23142 9629 ft 286 kts 170°
2026-05-01 10:39 38.45670 -0.22890 9236 ft 268 kts 181°
2026-05-01 10:39 38.43874 -0.22887 8871 ft 249 kts 181°
2026-05-01 10:40 38.42198 -0.22893 8550 ft 233 kts 181°
2026-05-01 10:40 38.40670 -0.22890 8315 ft 212 kts 180°
2026-05-01 10:40 38.39204 -0.22882 8041 ft 209 kts 179°
2026-05-01 10:40 38.37783 -0.22594 7762 ft 207 kts 168°
2026-05-01 10:41 38.36382 -0.22186 7479 ft 205 kts 168°
2026-05-01 10:41 38.35014 -0.21796 7217 ft 204 kts 168°
2026-05-01 10:41 38.32226 -0.21002 6455 ft 204 kts 167°
2026-05-01 10:42 38.30840 -0.20637 6180 ft 203 kts 174°
2026-05-01 10:42 38.29454 -0.20886 5914 ft 203 kts 194°
2026-05-01 10:42 38.28093 -0.21357 5643 ft 202 kts 195°
2026-05-01 10:42 38.26733 -0.21826 5373 ft 202 kts 195°
2026-05-01 10:43 38.25368 -0.22283 5109 ft 202 kts 195°
2026-05-01 10:43 38.24250 -0.23274 4838 ft 201 kts 241°
2026-05-01 10:43 38.23870 -0.24957 4586 ft 199 kts 269°
2026-05-01 10:43 38.24009 -0.26708 4319 ft 198 kts 284°
2026-05-01 10:44 38.24309 -0.28414 4062 ft 197 kts 284°
2026-05-01 10:44 38.24579 -0.30127 3793 ft 196 kts 282°
2026-05-01 10:44 38.24819 -0.31807 3529 ft 195 kts 281°
2026-05-01 10:44 38.25057 -0.33510 3257 ft 195 kts 282°
2026-05-01 10:45 38.25299 -0.35209 2992 ft 195 kts 282°
2026-05-01 10:45 38.25541 -0.36895 2743 ft 195 kts 281°
2026-05-01 10:45 38.25782 -0.38586 2477 ft 194 kts 281°
2026-05-01 10:45 38.26021 -0.40272 2209 ft 194 kts 280°
2026-05-01 10:46 38.26261 -0.41955 1956 ft 193 kts 280°
2026-05-01 10:46 38.26499 -0.43634 1690 ft 192 kts 280°
2026-05-01 10:46 38.26733 -0.45282 1436 ft 187 kts 280°
2026-05-01 10:46 38.26960 -0.46885 1178 ft 172 kts 279°
2026-05-01 10:47 38.27156 -0.48267 966 ft 150 kts 279°
2026-05-01 10:47 38.27337 -0.49551 754 ft 146 kts 279°
2026-05-01 10:47 38.27516 -0.50792 565 ft 140 kts 279°
2026-05-01 10:47 38.27682 -0.51981 418 ft 137 kts 279°
2026-05-01 10:48 38.27847 -0.53200 242 ft 141 kts 279°
2026-05-01 10:48 38.28027 -0.54439 86 ft 140 kts 280°
2026-05-01 10:48 38.28169 -0.55469 97 ft 91 kts 280°
2026-05-01 10:48 38.28252 -0.56067 110 ft 56 kts 280°
2026-05-01 10:49 38.28311 -0.56485 115 ft 42 kts 281°
2026-05-01 10:49 38.28385 -0.56768 124 ft 25 kts 302°
2026-05-01 10:49 38.28469 -0.56907 133 ft 17 kts 308°
2026-05-01 10:49 38.28525 -0.56960 136 ft 4 kts 359°
2026-05-01 10:50 38.28536 -0.56950 135 ft 1 kts 47°
2026-05-01 10:50 38.28543 -0.56921 134 ft 6 kts 83°
2026-05-01 10:50 38.28533 -0.56816 128 ft 18 kts 99°
2026-05-01 10:50 38.28506 -0.56612 121 ft 27 kts 101°
2026-05-01 10:51 38.28471 -0.56364 113 ft 30 kts 99°
2026-05-01 10:51 38.28442 -0.56129 109 ft 11 kts 84°
2026-05-01 10:51 38.28468 -0.56104 106 ft 3 kts
2026-05-01 10:51 38.28510 -0.56100 104 ft 3 kts
2026-05-01 10:52 38.28517 -0.56098 103 ft 0 kts